CDT,Max TemperatureF,Mean TemperatureF,Min TemperatureF,Max Dew PointF,MeanDew PointF,Min DewpointF,Max Humidity, Mean Humidity, Min Humidity, Max Sea Level PressureIn, Mean Sea Level PressureIn, Min Sea Level PressureIn, Max VisibilityMiles, Mean VisibilityMiles, Min VisibilityMiles, Max Wind SpeedMPH, Mean Wind SpeedMPH, Max Gust SpeedMPH,PrecipitationIn, CloudCover, Events, WindDirDegrees
2013-10-1,72,61,50,54,44,36,95,59,26,29.93,29.71,29.55,10,10,10,21,6,32,0.00,0,,254
2013-10-2,74,56,39,53,44,34,97,69,24,30.04,29.99,29.93,10,10,4,9,6,16,0.34,3,Rain,216
2013-10-3,57,54,52,53,52,50,98,93,87,30.04,29.97,29.93,10,10,4,18,10,25,0.42,8,Rain,62
2013-10-4,54,52,51,50,49,47,92,86,83,30.12,30.08,30.03,10,10,5,24,15,36,0.00,8,,66
2013-10-5,50,48,47,49,48,47,99,97,89,30.04,29.91,29.76,10,5,2,26,21,37,1.57,8,Rain,64
2013-10-6,54,46,39,49,46,39,100,93,79,29.78,29.73,29.67,10,8,2,20,10,33,0.13,7,Rain,6
2013-10-7,62,48,35,46,40,35,99,80,43,29.97,29.88,29.77,10,10,10,14,6,21,0.00,0,,255
2013-10-8,76,53,31,51,42,31,100,69,34,29.97,29.87,29.76,10,9,1,21,4,30,0.00,0,,195
2013-10-9,75,60,46,53,49,46,100,66,45,30.05,29.97,29.87,10,10,10,16,9,21,0.00,0,,221
2013-10-10,61,48,36,51,46,37,100,87,65,30.06,30.00,29.94,10,8,0,12,3,17,0.00,1,Fog,57
2013-10-11,75,62,48,57,52,47,97,79,45,29.96,29.82,29.63,10,10,10,21,7,30,0.00,2,Rain,79
2013-10-12,68,58,48,55,46,42,90,72,58,30.08,29.81,29.62,10,10,10,21,14,29,0.00,7,,234
2013-10-13,58,45,33,43,36,32,97,72,38,30.40,30.31,30.09,10,10,10,12,6,16,0.00,1,,251
2013-10-14,51,42,32,45,39,31,97,85,61,30.43,30.32,30.14,10,10,10,17,4,25,0.00,4,Rain,74
2013-10-15,50,46,43,48,46,42,98,94,86,30.12,29.88,29.76,10,8,3,24,15,34,1.31,8,Rain,65
2013-10-16,54,44,34,42,37,32,93,74,46,29.93,29.88,29.84,10,10,7,10,7,18,0.00,4,,295
2013-10-17,47,39,31,46,39,30,99,93,86,29.84,29.80,29.77,10,9,4,10,3,16,0.19,5,Rain,257
2013-10-18,51,42,34,39,34,29,95,77,43,29.92,29.86,29.79,10,10,10,17,6,25,0.01,6,Rain,304
2013-10-19,47,39,29,38,34,28,100,86,59,29.79,29.72,29.66,10,9,1,10,5,18,0.00,6,Rain,276
2013-10-20,39,33,27,36,32,26,99,94,84,29.78,29.74,29.71,10,9,4,12,3,18,0.15,6,Rain,255
2013-10-21,37,34,30,32,28,23,88,77,63,29.88,29.83,29.79,10,10,7,21,12,26,0.02,7,Snow,284
2013-10-22,37,32,28,32,27,24,97,79,60,30.01,29.97,29.89,10,10,10,12,6,,0.00,6,,314
2013-10-23,40,34,27,29,25,20,89,72,47,30.05,29.99,29.94,10,10,10,14,7,18,0.00,8,,292
2013-10-24,45,38,32,32,28,24,83,73,46,30.26,30.16,30.05,10,10,10,15,7,18,0.00,7,,277
2013-10-25,50,38,26,38,30,25,95,73,51,30.26,29.98,29.66,10,10,10,22,9,29,0.00,3,,234
2013-10-26,46,42,35,35,31,27,85,69,50,30.04,29.93,29.70,10,10,7,17,11,25,0.00,7,Rain,307
2013-10-27,51,41,31,32,29,23,85,67,46,30.25,29.93,29.77,10,10,10,17,7,24,0.00,5,,284
2013-10-28,37,29,21,28,23,19,96,72,61,30.53,30.45,30.26,10,10,7,16,10,23,0.00,6,,58
2013-10-29,35,27,19,34,28,18,99,91,66,30.48,30.31,30.16,10,8,1,7,1,,0.00,6,Rain-Snow,260
2013-10-30,42,38,34,42,38,34,100,97,91,30.15,29.96,29.69,10,6,1,8,1,,0.00,8,Rain,91
2013-10-31,45,43,41,46,43,40,100,99,93,29.67,29.46,29.34,10,4,0,9,1,,0.02,8,Fog-Rain,329